www.pogodaiklimat.ru

Погода и климат >> Архив погоды >> Беларусь >> Березинский Заповедник


ПОГОДА в Березинском Заповеднике

  • Прогноз погоды в Березинском Заповеднике
  • Монитор погоды в Березинском Заповеднике
  • Климат города

АРХИВ ПОГОДЫ в Березинском Заповеднике

Время (UTC), дата Ветер
(напр.,м/с)
 
Видим.   Явления Облачность Т
(С)
Тd
(С)
f
(%)
Тe
(С)
Тes
(С)
Комфортность P
(гПа)
Po
(гПа)
Тmin
(С)
Tmax
(С)
R
(мм)
R24
(мм)
S
(см)
21 15.10 штиль 0 300 м туман ясно +3.3 +3.0 98 +2 +2 1027.5 1005.5
00 16.10 штиль 0 400 м туман ясно +2.1 +1.8 98 +1 +1 1027.8 1005.7
03 16.10 штиль 0 1800 м в посл. час туман ясно +1.6 +1.2 97 0 0 1027.2 1005.1
06 16.10 Ю 1 19 км {туман} 8/0
[Ci fib]
+3.7 +3.0 95 +2 +2 1027.0 1005.1 +0.5
09 16.10 Ю 2 26 км 4/0
[Ac trans Ci fib]
+14.5 +5.4 54 +14 +17 1025.8 1004.8
12 16.10 ЮЗ 3 25 км 4/0
[Ac trans Ci fib]
+19.1 +4.2 37 +20 +21 1024.8 1004.2
15 16.10 Ю 1 26 км 4/0
[Ci fib]
+12.4 +6.9 69 +13 +13 1025.0 1003.8
18 16.10 штиль 0 11 км ясно +6.9 +6.1 95 +6 +6 1025.5 1003.9 +19.4
21 16.10 штиль 0 400 м туман ясно +3.7 +3.4 98 +2 +2 1025.9 1004.0
00 17.10 штиль 0 400 м туман ясно +2.2 +1.9 98 +1 +1 1025.8 1003.8
03 17.10 штиль 0 300 м туман ясно +1.0 +0.7 98 -0 -0 1025.8 1003.7
06 17.10 штиль 0 200 м туман ясно +1.0 +0.7 98 -0 -0 1026.2 1004.1 +0.1
09 17.10 ЮВ 1 25 км {туман} ясно +13.9 +7.6 66 +14 +18 1025.6 1004.6
12 17.10 ЮЗ 2 28 км {туман} ясно +20.2 +7.3 43 +22 +24 комфорт 1024.1 1003.6
21 17.10 штиль 0 600 м туман ?/? +4.2 +3.9 98 +3 +3 1025.4 1003.6
00 18.10 штиль 0 700 м туман ?/? +2.7 +2.4 98 +1 +1 1025.4 1003.4
03 18.10 штиль 0 700 м туман ?/? +1.4 +1.1 98 0 0 1024.6 1002.6
06 18.10 штиль 0 800 м туман ?/? +2.9 +2.6 98 +2 +2 1023.8 1001.9 +0.9
09 18.10 Ю 1 18 км {туман} 8/0
[Ci fib]
+14.4 +8.9 70 +15 +18 1022.0 1001.1
12 18.10 ЮЗ 2 19 км {туман} 6/0
[Ci fib]
+21.1 +9.3 47 +22 +25 комфорт 1019.4 999.1
15 18.10 Ю 1 16 км ясно +14.9 +11.0 77 +15 +15 1019.0 998.2
18 18.10 штиль 0 3100 м дымка ясно +8.8 +8.5 98 +8 +8 1019.1 997.8 +21.1
21 18.10 штиль 0 400 м туман ясно +6.5 +6.2 98 +5 +5 1018.9 997.4
00 19.10 штиль 0 400 м туман ясно +4.3 +4.0 98 +3 +3 1018.7 997.0
03 19.10 штиль 0 300 м туман ясно +2.4 +2.1 98 +1 +1 1018.2 996.4
06 19.10 СЗ 1 1900 м в посл. час туман 9/0
[Ac cast Ci sp]
+6.9 +6.6 98 +6 +6 1018.7 997.2 +1.9
09 19.10 СЗ 2 11 км 8/0
[Ac cast]
+10.1 +7.8 86 +9 +10 1019.5 998.3
12 19.10 С 2 18 км 9/9 570 м
[Sc]
+13.7 +9.8 77 +13 +13 1019.3 998.4
15 19.10 С 3 30 км 9/9 630 м
[Sc]
+11.6 +7.3 75 +10 +10 1020.2 999.1
18 19.10 СЗ 2 19 км 3/0
[Ac trans]
+7.0 +6.5 97 +5 +5 1021.6 1000.1 +13.9
21 19.10 штиль 0 4200 м дымка ясно +2.7 +2.4 98 +1 +1 1022.8 1000.9
00 20.10 З 1 9000 м дымка ясно -0.8 -1.1 98 -3 -3 1023.7 1001.5
03 20.10 штиль 0 22 км ясно -1.9 -2.4 96 -3 -3 1023.9 1001.6
06 20.10 штиль 0 18 км ясно -0.8 -1.7 94 -2 -2 1024.3 1002.1 -2.6
09 20.10 штиль 0 29 км ясно +9.3 +2.8 64 +9 +13 1023.8 1002.4
12 20.10 В 2 35 км 3/0
[Ci sp]
+11.2 +0.4 47 +10 +13 1022.6 1001.4
15 20.10 штиль 0 35 км 3/0
[Ac trans]
+5.3 +2.1 80 +4 +4 1022.8 1001.1
18 20.10 штиль 0 35 км 9/0
[Ac trans]
+3.8 +1.2 83 +3 +3 1023.4 1001.6 +11.7
21 20.10 штиль 0 23 км 6/0
[Ci sp]
+1.0 +0.6 97 -0 -0 1024.2 1002.1
00 21.10 З 1 20 км 4/0
[Ci fib]
-0.8 -1.4 96 -3 -3 1024.7 1002.5
03 21.10 штиль 0 35 км ясно -1.2 -1.6 97 -3 -3 1025.2 1002.9
06 21.10 штиль 0 35 км 8/0
[Ac trans]
+0.7 -0.1 94 -1 -1 1026.4 1004.3 -1.9
09 21.10 штиль 0 26 км 6/0
[Ci fib]
+10.1 +2.3 58 +10 +13 1026.6 1005.2
12 21.10 штиль 0 35 км 9/9 1200 м
[Sc]
+10.1 +0.9 53 +10 +10 1026.4 1005.0
18 21.10 штиль 0 35 км ясно +2.1 +0.8 91 +1 +1 1027.6 1005.5 +11.6

 

Местоположение метеостанции Березинский Заповедник (Минская область, Беларусь): широта 54.73 долгота 28.35 высота над уровнем моря 150 м.

В архиве по умолчанию представлена погода в Березинском Заповеднике за последнюю неделю. Архивные данные за месяц целиком и за предыдущие месяцы, начиная с января 2011 года, Вы можете получить, выбрав интересующий диапазон дат из раскрывающегося списка и нажав кнопку "Ввод!".


*Определитесь, кто Вы:
робот инопланетянин человек

Внимание! Время в таблицах - всемирное. Для получения местного времени необходимо прибавить поправку, которая в Березинском Заповеднике равна 3 ч.

Смотрите также архив погоды в соседних городах и на ближайших метеорологических станциях:

Погода в Лепеле (Витебская область, Беларусь) (27 км)
Погода в Докшицах (Витебская область, Беларусь) (42 км)
Погода в Борисове (Минская область, Беларусь) (52 км)
Погода в Сенно (Витебская область, Беларусь) (87 км)
Погода в Полоцке (Витебская область, Беларусь) (87 км)
Погода в Шарковщине (Витебская область, Беларусь) (91 км)
Погода в Вилейке (Минская область, Беларусь) (91 км)
Погода в Минске (город Минск, Беларусь) (100 км)
Погода в Нарочи (Минская область, Беларусь) (108 км)
Погода в Березино (Минская область, Беларусь) (108 км)

Пояснения к столбцам:

Ветер - указаны скорость ветра в м/с - средняя за 10 мин, порывы в срок и между сроками (в фигурных скобках) и направление, откуда дует ветер: С - северный, СВ - северо-восточный, В - восточный, ЮВ - юго-восточный, Ю - южный, ЮЗ - юго-западный, З - западный, СЗ - северо-западный.
Видимость - горизонтальная дальность видимости в метрах или километрах. При видимости от 1 до 10 км при отсутствии осадков обычно наблюдается дымка, при ухудшении видимости до 1 км и менее - туман. В сухую погоду видимость может ухудшаться дымом, пылью или мглою.
Явления - указаны атмосферные явления, наблюдавшиеся в срок или в последний час перед сроком; фигурными скобками обозначены явления, наблюдавшиеся между сроками (за 1-3 часа до срока); квадратными скобками обозначены град или гололедные отложения с указанием их диаметра в мм.
Облачность - указаны через наклонную черту общая и нижняя облачность в баллах и высота нижней границы облаков в метрах; квадратными скобками обозначены формы облаков: Ci - перистые, Cs - перисто-слоистые, Cc - перисто-кучевые, Ac - высококучевые, As - высокослоистые, Sc - слоисто-кучевые, Ns - слоисто-дождевые, Cu - кучевые, Cb - кучево-дождевые. Подробнее классификацию облаков см. в Атласе облаков (PDF).
T - Температура воздуха - температура, измеренная на высоте 2 м над землей.
Td - Температура точки росы - температура, при понижении до которой содержащийся в воздухе водяной пар достигнет насыщения.
f - Относительная влажность воздуха - влажноcть воздуха, измеренная на высоте 2 м над землей.
Te - Эффективная температура - температура, которую ощущает одетый по сезону человек в тени. Характеристика душности погоды. При расчете учитывается влияние влажности воздуха и скорости ветра на теплоощущения человека.
Tes - Эффективная температура на солнце - температура, которую ощущает человек, с поправкой на солнечный нагрев. Характеристика знойности погоды. Зависит от высоты солнца над горизонтом, облачности и скорости ветра. Ночью, в пасмурную погоду, а также при ветре 12 м/с и более поправка равна нулю.
P - Атмосферное давление - приведенное к уровню моря атмосферное давление.
Po - Атмосферное давление - измеренное на уровне метеостанции атмосферное давление.
Tmin - Минимальная температура - минимум температуры воздуха на высоте 2 м над землей.
Tmax - Максимальная температура - максимум температуры воздуха на высоте 2 м над землей.
R - Количество осадков - Количество выпавших осадков за период времени, мм. При наведении курсора мыши на число - период времени, за который выпало указанное количество осадков.
R24 - Количество осадков - Количество выпавших осадков за 24 часа, мм.
S - Снежный покров - Высота снежного покрова, см. При наведении курсора мыши на число - состояние снежного покрова и степень покрытия местности в баллах.